RH
30 33 34 35 35 49 60 63 67 64 66 66 63 61 61 54 50 49 47 42 41 43 43 37 33 56 53 54 57 56 51 52 49 43 44 51 54 58 60 67 62 69 64 50
35 39 42 40 35 54 63 70 68 75 78 67 65 64 66 65 63 56 53 48 46 42 41 47 39 46 56 59 65 68 61 67 70 51 49 50 53 52 52 55 59 57 63 55
40 39 41 39 41 53 72 79 81 82 80 63 61 67 67 69 67 66 62 61 57 54 53 48 53 55 43 46 51 68 66 69 77 80 77 73 71 62 58 53 56 56 49 52
44 45 46 47 47 51 75 77 87 75 87 68 64 70 71 73 75 72 72 66 65 66 65 59 53 52 55 47 38 49 66 70 74 77 75 69 70 69 65 63 55 55 47 50
49 49 49 47 51 64 81 78 75 85 84 69 77 75 79 79 81 83 79 76 77 76 69 63 58 50 46 51 53 60 62 68 75 76 69 65 60 61 64 62 60 53 54 50
68 63 60 58 56 70 81 77 75 87 80 77 79 79 84 87 88 84 81 85 85 81 77 71 64 57 49 43 43 60 72 75 85 75 73 67 62 63 66 62 64 62 57 51
88 78 69 62 60 67 75 69 79 89 80 83 84 89 89 89 88 87 85 85 82 82 83 80 73 66 58 50 45 45 50 67 79 81 73 78 42 54 49 60 56 58 53 52
98 92 82 73 67 69 74 71 81 88 87 92 95 94 92 93 89 91 89 84 78 83 87 86 76 70 68 59 54 53 49 67 75 76 71 54 38 40 46 47 39 53 55 57
98 98 98 91 80 81 80 74 80 91 98 91 95 97 95 95 94 94 87 85 86 86 88 86 84 78 63 62 57 55 62 71 71 73 77 64 30 34 41 43 49 52 67 66
98 98 98 98 98 91 83 75 77 97 98 96 95 95 96 97 96 93 88 88 90 88 92 89 83 80 66 65 67 72 73 75 75 77 79 59 43 41 45 68 55 55 58 67
98 98 98 98 98 98 96 90 89 93 98 98 96 97 98 96 93 92 87 94 94 95 91 84 82 82 72 67 65 70 72 78 75 81 84 68 42 47 48 54 56 62 62 62
98 98 97 98 98 98 99 97 97 99 98 98 97 98 97 93 90 88 88 81 85 85 86 80 76 76 73 68 71 61 68 63 66 65 52 38 41 40 42 46 45 53 65 66
98 97 98 98 98 98 97 98 98 99 98 98 98 94 97 95 92 89 89 82 84 83 77 79 76 69 65 65 63 55 55 60 61 62 40 44 46 40 52 51 50 59 66 66
98 98 98 98 98 98 98 98 98 99 98 98 97 91 88 91 94 93 89 85 90 92 89 83 76 74 65 65 59 58 56 56 57 53 46 48 39 42 55 57 56 64 68 69
86 93 97 98 98 98 98 98 98 98 94 97 94 90 86 86 94 94 95 95 94 96 94 87 82 77 75 72 68 64 62 73 68 52 61 63 56 59 57 60 62 73 75 73
95 88 92 95 98 99 98 99 98 94 96 95 94 85 78 79 86 89 96 99 98 96 95 93 84 75 73 76 69 64 66 80 91 83 83 80 70 72 65 62 76 82 82 78
99 97 97 92 92 98 98 86 82 89 93 88 86 83 80 64 75 93 95 94 97 98 98 96 98 87 86 86 78 71 70 78 85 93 89 81 78 74 74 75 82 87 85 88
91 98 98 98 97 97 93 82 83 89 93 83 86 77 77 70 76 92 93 98 98 96 94 93 93 87 93 86 72 72 78 86 87 91 91 86 83 80 77 82 84 89 87 90
99 98 99 99 99 93 94 91 89 88 89 84 89 87 93 86 92 97 98 96 96 93 97 90 90 92 89 76 74 87 86 92 91 96 98 96 95 91 88 96 96 91 93 93
96 95 98 99 96 94 94 98 98 99 97 96 91 99 96 90 96 96 95 91 93 91 90 93 96 85 80 79 80 84 91 90 97 98 98 99 96 98 99 98 98 98 94 93
94 92 93 99 98 94 98 99 98 95 95 95 98 97 94 96 96 93 88 94 92 92 93 98 89 80 74 72 77 87 88 88 94 97 95 95 95 95 96 96 94 96 95 93
90 96 96 97 97 97 97 97 97 95 88 90 90 93 91 91 90 89 92 96 97 97 95 93 84 79 80 78 77 82 83 88 92 93 91 94 93 93 93 94 93 93 88 85
92 91 85 84 82 88 89 86 90 85 84 83 85 90 93 91 92 94 98 97 98 97 97 97 91 91 92 88 84 81 82 88 90 92 94 96 96 94 94 92 90 88 88 90
84 81 83 83 85 83 86 86 86 82 81 82 85 89 91 92 91 98 97 96 94 96 95 92 93 95 92 90 88 88 89 90 88 92 94 96 97 95 96 96 96 95 92 93
81 78 84 82 80 82 84 85 82 81 81 87 90 92 92 93 97 96 94 96 96 95 95 96 97 96 95 93 92 92 93 90 91 96 95 95 96 97 97 97 97 96 97 97
82 87 89 88 89 89 89 89 92 93 93 92 88 94 97 97 97 96 97 95 96 97 97 97 96 97 97 96 95 93 95 96 97 97 97 97 97 97 97 97 97 97 97 97
89 93 90 88 91 93 94 93 89 91 94 97 95 96 97 96 96 96 97 97 97 97 98 98 98 97 97 98 97 97 97 97 97 97 97 97 97 97 97 97 97 97 96 97